Waarnemingen

Advertentie
Mijn weer
Metz-Nancy-Lorraine, Frankrijk (7093): temperatuur & dauwpunt: 18.02.2017 16:00:00 - 24.02.2017 16:00:00 (CET)Metz-Nancy-Lorraine, Frankrijk (7093): windsnelheid & windstoten: 18.02.2017 16:00:00 - 24.02.2017 16:00:00 (CET)Metz-Nancy-Lorraine, Frankrijk (7093): windrichting: 18.02.2017 16:00:00 - 24.02.2017 16:00:00 (CET)Metz-Nancy-Lorraine, Frankrijk (7093): luchtdruk: 18.02.2017 16:00:00 - 24.02.2017 16:00:00 (CET)Metz-Nancy-Lorraine, Frankrijk (7093): zicht: 18.02.2017 16:00:00 - 24.02.2017 16:00:00 (CET)Metz-Nancy-Lorraine, Frankrijk (7093): Zonneschijnduur: 18.02.2017 16:00:00 - 24.02.2017 16:00:00 (CET)Metz-Nancy-Lorraine, Frankrijk (7093): neerslag: 18.02.2017 16:00:00 - 24.02.2017 16:00:00 (CET)
Datum & Tijd tt [°C] td [°C] ff [km/u] ff [kn] fx [km/u] fx [kn] dd ppp [hPa] vv [km] sd [min] rr [mm]
24.02.2017 16:00:00 3,0 1,7 22 12 41 22 N 1017,2 13 0 1,8
24.02.2017 15:00:00 5,8 0,9 15 8 34 19 N 1015,9 36 3 0,0
24.02.2017 14:00:00 7,7 0,9 18 10 29 15 W 1015,3 23 33 0,0
24.02.2017 13:00:00 7,4 2,1 16 8 33 18 WNW 1015,3 30 11 0,0
24.02.2017 12:00:00 6,3 2,0 17 9 29 16 WNW 1015,4 34 1 0,0
24.02.2017 11:00:00 5,9 2,0 19 10 27 15 WNW 1015,2 36 3 0,0
24.02.2017 10:00:00 4,8 3,0 16 9 26 14 W 1014,6 31 0 0,0
24.02.2017 09:00:00 4,3 2,5 14 7 21 11 WZW 1014,2 42 27 0,0
24.02.2017 08:00:00 3,3 1,8 8 4 14 8 W 1013,6 37 4 0,0
24.02.2017 07:00:00 3,3 1,5 10 5 28 15 W 1012,6 40 0 0,0
24.02.2017 06:00:00 3,5 2,3 14 8 34 18 W 1011,9 36 0 0,0
24.02.2017 05:00:00 4,0 2,2 25 14 49 26 W 1011,3 52 0 0,0
24.02.2017 04:00:00 5,6 1,5 29 16 45 24 W 1010,1 38 0 0,0
24.02.2017 03:00:00 6,0 1,3 32 17 54 29 W 1009,7 39 0 0,0
24.02.2017 02:00:00 6,4 1,1 37 20 61 33 WZW 1008,8 41 0 0,0
24.02.2017 01:00:00 6,6 0,9 35 19 71 39 W 1007,9 41 0 0,0
24.02.2017 00:00:00 7,0 0,4 44 24 66 36 W 1006,9 44 0 0,0
23.02.2017 23:00:00 7,2 0,6 45 24 71 38 W 1006,1 46 0 0,0
23.02.2017 22:00:00 8,0 2,7 36 20 59 32 W 1005,3 46 0 0,0
23.02.2017 21:00:00 8,1 5,0 26 14 62 33 WZW 1004,4 45 0 0,0
23.02.2017 20:00:00 8,5 5,6 37 20 70 38 WZW 1003,5 48 0 0,0
23.02.2017 19:00:00 8,4 6,5 46 25 74 40 WZW 1002,7 40 0 0,0
23.02.2017 18:00:00 8,0 6,6 50 27 80 43 ZW 1002,3 19 0 0,2
23.02.2017 17:00:00 9,0 5,4 50 27 76 41 ZW 1002,2 28 0 0,0
23.02.2017 16:00:00 9,6 5,0 40 22 72 39 WZW 1002,6 19 0 0,0
23.02.2017 15:00:00 9,6 4,6 54 29 80 43 WZW 1002,7 18 1 0,0
23.02.2017 14:00:00 10,4 5,4 39 21 61 33 WZW 1003,6 28 0 0,0
23.02.2017 13:00:00 10,4 5,6 33 18 54 29 WZW 1004,6 20 12 0,0
23.02.2017 12:00:00 9,0 5,0 36 19 54 29 ZW 1005,1 21 2 0,0
23.02.2017 11:00:00 7,8 4,7 32 17 46 25 ZW 1006,7 20 0 0,0
23.02.2017 10:00:00 7,2 4,5 27 15 45 24 ZW 1007,9 24 0 0,0
23.02.2017 09:00:00 7,2 4,5 28 15 48 26 ZW 1008,5 20 0 0,0
23.02.2017 08:00:00 7,3 4,6 28 15 49 26 ZW 1009,3 21 0 0,0
23.02.2017 07:00:00 7,7 4,8 31 17 44 24 ZW 1010,1 24 0 0,0
23.02.2017 06:00:00 7,8 5,1 25 13 43 23 ZW 1010,8 24 0 0,0
23.02.2017 05:00:00 8,2 5,1 26 14 53 29 ZW 1011,6 25 0 0,0
23.02.2017 04:00:00 8,1 5,7 24 13 48 26 WZW 1012,4 22 0 0,0
23.02.2017 03:00:00 8,1 6,2 30 16 46 25 ZW 1013,0 20 0 0,0
23.02.2017 02:00:00 8,4 6,2 32 17 56 30 WZW 1013,6 21 0 0,0
23.02.2017 01:00:00 8,4 6,4 33 18 52 28 WZW 1014,2 20 0 0,0
23.02.2017 00:00:00 8,5 6,3 30 16 54 29 WZW 1014,3 19 0 0,0
22.02.2017 23:00:00 8,3 6,3 36 20 54 29 ZW 1014,6 19 0 0,0
22.02.2017 22:00:00 8,0 6,6 39 21 55 30 ZW 1014,9 17 0 0,0
22.02.2017 21:00:00 8,0 6,8 39 21 59 32 ZW 1015,0 18 0 0,0
22.02.2017 20:00:00 7,9 7,1 40 21 55 30 ZW 1015,2 23 0 0,0
22.02.2017 19:00:00 7,9 7,3 35 19 53 28 ZW 1015,1 10 0 0,0
22.02.2017 18:00:00 8,4 7,2 37 20 56 31 WZW 1015,1 7 0 0,0
22.02.2017 17:00:00 8,6 7,2 39 21 59 32 WZW 1014,9 20 0 0,0
22.02.2017 16:00:00 8,8 7,2 42 23 63 34 WZW 1015,3 18 0 0,0
22.02.2017 15:00:00 8,8 7,4 42 23 66 36 WZW 1015,5 13 0 0,0
22.02.2017 14:00:00 9,2 7,1 39 21 60 32 WZW 1015,8 28 0 0,0
22.02.2017 13:00:00 8,9 7,2 40 22 67 36 WZW 1016,4 23 0 0,0
22.02.2017 12:00:00 8,8 7,2 35 19 55 30 WZW 1016,9 19 0 0,0
22.02.2017 11:00:00 8,5 7,4 34 19 50 27 WZW 1017,2 9 0 0,0
22.02.2017 10:00:00 8,5 7,6 31 17 49 26 WZW 1017,0 13 0 0,0
22.02.2017 09:00:00 8,9 7,3 35 19 55 30 WZW 1016,9 29 0 0,0
22.02.2017 08:00:00 9,0 7,0 37 20 55 30 WZW 1016,3 38 0 0,0
22.02.2017 07:00:00 9,1 7,4 33 18 50 27 WZW 1016,0 36 0 0,0
22.02.2017 06:00:00 9,6 7,7 34 18 48 26 WZW 1016,4 25 0 0,0
22.02.2017 05:00:00 9,7 8,0 27 15 48 26 WZW 1016,8 30 0 0,0
22.02.2017 04:00:00 9,6 8,4 29 16 51 27 WZW 1017,0 20 0 0,0
22.02.2017 03:00:00 9,8 8,6 31 17 45 24 WZW 1017,3 20 0 0,0
22.02.2017 02:00:00 9,9 8,7 24 13 49 26 WZW 1018,1 25 0 0,0
22.02.2017 01:00:00 9,9 9,0 29 15 45 25 WZW 1018,6 18 0 0,4
22.02.2017 00:00:00 10,0 9,2 29 16 40 21 WZW 1018,7 14 0 0,0
21.02.2017 23:00:00 9,8 9,3 23 12 40 22 WZW 1018,9 13 0 0,0
21.02.2017 22:00:00 9,5 9,2 24 13 36 19 ZW 1019,1 9 0 0,0
21.02.2017 21:00:00 9,4 8,9 22 12 32 17 ZW 1019,6 15 0 0,0
21.02.2017 20:00:00 9,3 8,8 21 11 32 17 ZW 1019,8 28 0 0,0
21.02.2017 19:00:00 9,2 9,1 14 8 30 16 WZW 1020,0 5 0 0,0
21.02.2017 18:00:00 9,5 8,7 19 10 30 16 WZW 1020,0 17 0 0,2
21.02.2017 17:00:00 9,6 8,8 20 11 35 19 W 1019,5 13 0 0,0
21.02.2017 16:00:00 10,4 8,7 21 12 41 22 W 1019,5 58 0 0,0
21.02.2017 15:00:00 10,3 9,4 27 14 44 24 W 1019,4 7 0 0,0
21.02.2017 14:00:00 10,2 9,7 26 14 44 24 WZW 1019,5 8 0 0,2
21.02.2017 13:00:00 10,6 9,7 28 15 42 23 W 1019,6 10 0 0,0
21.02.2017 12:00:00 10,6 9,5 28 15 42 23 W 1019,8 15 0 0,0
21.02.2017 11:00:00 10,3 9,5 28 15 44 24 W 1019,7 15 0 0,0
21.02.2017 10:00:00 10,2 9,6 29 16 42 23 W 1019,5 31 0 0,0
21.02.2017 09:00:00 9,7 9,7 24 13 37 20 W 1019,4 3,9 0 0,2
21.02.2017 08:00:00 9,9 9,6 24 13 37 20 W 1019,0 6 0 0,0
21.02.2017 07:00:00 9,7 9,7 24 13 38 21 WZW 1018,5 6 0 0,0
21.02.2017 06:00:00 9,5 9,5 27 14 39 21 WZW 1018,4 3,3 0 0,2
21.02.2017 05:00:00 9,5 9,4 29 15 43 23 WZW 1018,5 11 0 0,0
21.02.2017 04:00:00 9,2 9,2 29 15 39 21 ZW 1019,1 2,8 0 0,0
21.02.2017 03:00:00 9,1 9,1 24 13 36 19 ZW 1019,7 2,0 0 0,0
21.02.2017 02:00:00 8,9 8,9 25 13 37 20 WZW 1020,1 3,8 0 0,2
21.02.2017 01:00:00 8,7 8,6 25 13 36 20 WZW 1020,7 7 0 0,0
21.02.2017 00:00:00 8,5 8,1 26 14 39 21 WZW 1020,6 11 0 0,0
20.02.2017 23:00:00 8,2 7,8 24 13 39 21 ZW 1021,1 15 0 0,0
20.02.2017 22:00:00 8,2 7,8 29 16 42 23 WZW 1021,2 11 0 0,0
20.02.2017 21:00:00 8,3 7,5 27 14 39 21 ZW 1021,5 11 0 0,0
20.02.2017 20:00:00 8,5 7,3 24 13 41 22 ZW 1021,3 9 0 0,0
20.02.2017 19:00:00 8,6 7,1 17 9 39 21 ZW 1021,6 10 0 0,0
20.02.2017 18:00:00 8,4 7,2 21 12 37 20 ZW 1021,1 9 0 0,0
20.02.2017 17:00:00 8,7 7,3 26 14 41 22 ZW 1021,1 9 0 0,0
20.02.2017 16:00:00 9,0 7,1 35 19 48 26 ZW 1021,4 10 0 0,2
20.02.2017 15:00:00 9,2 6,5 31 17 49 26 WZW 1021,8 15 0 0,0
20.02.2017 14:00:00 9,1 6,5 26 14 40 21 WZW 1022,3 14 0 0,0
20.02.2017 13:00:00 8,5 6,5 29 15 43 23 WZW 1023,1 13 0 0,0
20.02.2017 12:00:00 8,3 6,4 25 13 38 21 WZW 1023,8 13 0 0,0
20.02.2017 11:00:00 7,6 5,9 27 15 36 19 ZW 1024,2 12 0 0,0
20.02.2017 10:00:00 7,0 5,6 18 10 26 14 ZW 1024,5 8 0 0,0
20.02.2017 09:00:00 6,4 5,8 16 8 24 13 ZW 1024,2 6 0 0,0
20.02.2017 08:00:00 5,6 5,5 17 9 24 13 ZZW 1024,3 2,4 0 0,0
20.02.2017 07:00:00 5,5 4,8 16 9 25 14 ZW 1024,2 6 0 0,0
20.02.2017 06:00:00 5,5 5,2 18 10 24 13 ZZW 1024,1 4,2 0 0,0
20.02.2017 05:00:00 5,8 5,4 15 8 22 12 ZW 1024,4 3,5 0 0,0
20.02.2017 04:00:00 5,3 4,7 11 6 18 10 ZZW 1024,3 4,8 0 0,0
20.02.2017 03:00:00 5,0 4,3 14 8 20 11 ZW 1025,0 6 0 0,0
20.02.2017 02:00:00 5,3 3,8 16 9 20 11 ZW 1025,1 7 0 0,0
20.02.2017 01:00:00 5,8 3,8 13 7 19 10 WZW 1025,4 8 0 0,0
20.02.2017 00:00:00 6,1 3,6 14 8 21 11 ZW 1024,9 10 0 0,0
19.02.2017 23:00:00 6,5 2,9 13 7 21 11 WZW 1025,0 14 0 0,0
19.02.2017 22:00:00 6,9 2,6 16 9 27 15 W 1024,9 17 0 0,0
19.02.2017 21:00:00 7,2 2,5 16 9 28 15 WZW 1024,4 17 0 0,0
19.02.2017 20:00:00 7,5 3,0 15 8 26 14 WZW 1024,1 14 0 0,0
19.02.2017 19:00:00 7,6 1,9 16 9 26 14 W 1024,2 21 0 0,0
19.02.2017 18:00:00 8,7 1,6 16 8 31 17 W 1023,5 25 29 0,0
19.02.2017 17:00:00 10,4 1,7 22 12 31 17 W 1023,1 29 55 0,0
19.02.2017 16:00:00 10,3 1,6 20 11 29 16 WZW 1023,3 16 48 0,0
19.02.2017 15:00:00 10,6 2,9 18 10 34 18 WZW 1023,5 13 60 0,0
19.02.2017 14:00:00 9,9 2,5 17 9 31 17 WZW 1024,1 13 51 0,0
19.02.2017 13:00:00 8,5 3,3 9 5 16 9 ZW 1025,1 7 60 0,0
19.02.2017 12:00:00 6,9 2,8 10 5 18 10 ZW 1026,0 7 60 0,0
19.02.2017 11:00:00 5,0 1,8 10 5 19 10 ZZW 1026,4 8 60 0,0
19.02.2017 10:00:00 2,2 1,0 8 4 13 7 Z 1026,9 5 55 0,0
19.02.2017 09:00:00 0,5 0,2 5 3 12 7 ZZW 1027,1 3,0 60 0,0
19.02.2017 08:00:00 -2,4 -2,5 9 5 14 7 Z 1026,6 2,2 0 0,0
19.02.2017 07:00:00 -2,9 -3,6 5 3 13 7 Z 1026,4 2,5 0 0,0
19.02.2017 06:00:00 -2,8 -3,5 7 4 11 6 Z 1026,3 4,2 0 0,0
19.02.2017 05:00:00 -2,8 -3,8 5 3 12 7 O 1026,3 6 0 0,0
19.02.2017 04:00:00 -1,7 -3,0 2 1 8 5 O 1026,5 7 0 0,0
19.02.2017 03:00:00 -1,3 -2,6 5 3 10 6 ONO 1027,0 7 0 0,0
19.02.2017 02:00:00 -0,7 -2,0 2 1 9 5 Z 1027,0 9 0 0,0
19.02.2017 01:00:00 0,7 -0,5 6 3 13 7 OZO 1026,9 9 0 0,0
19.02.2017 00:00:00 1,4 -0,2 5 3 21 11 NO 1027,1 10 0 0,0
18.02.2017 23:00:00 1,7 -0,2 16 8 19 11 O 1026,7 11 0 0,0
18.02.2017 22:00:00 2,3 0,0 16 9 19 10 O 1026,8 12 0 0,0
18.02.2017 21:00:00 2,8 0,4 15 8 16 9 O 1026,9 14 0 0,0
18.02.2017 20:00:00 3,0 0,6 13 7 16 9 ONO 1027,0 15 0 0,0
18.02.2017 19:00:00 3,4 0,8 12 7 15 8 ONO 1027,0 13 0 0,0
18.02.2017 18:00:00 5,6 1,3 11 6 19 10 ONO 1026,7 17 34 0,0
18.02.2017 17:00:00 8,7 1,6 9 5 21 12 NO 1026,1 29 60 0,0
18.02.2017 16:00:00 9,5 1,4 12 6 20 11 ONO 1025,9 20 41 0,0

tt = temperatuur
td = dauwpunt
ff = windsnelheid
fx = windstoten
dd = windrichting
ppp = luchtdruk
vv = zicht
sd = Zonneschijnduur
rr = neerslag

Weerstations in de omgeving